ONEWEB-0630, 56072

Orbit data source: Space-Track

ONEWEB-0630, 56072 is a payload satellite owned by One Web (NAA) (UK) in LEO that was launched on Sun, 26 Mar 2023 UTC via a LVM3 launch vehicle from the Sirharikota (SRI). Payload-class satellites include a variety of spacecraft equipped with specific instruments for various scientific and technological missions. These include communications satellites like Starlink; space stations such as the ISS; scientific satellites like the Hubble; Earth observation satellites from companies like Planet Labs, Umbra, and HawkEye 360; GPS; miniature CubeSats for education and research; and military/defense satellites.

Loading next visibility...
Identifier
56072, 2023-043AC
Orbit
LEO
Country
Flag of UKUK
Related business
Manufacturer
One Web
Mission
Operational Commercial Communications
Bus & Motor
ARROW, Unknown motor
Mass
148 kg wet, ~140 kg dry
Launch date (UTC)
2023-03-26 (2 years ago)
Launch vehicle
LVM3
Launch site
Sirharikota (SRI)
Object type
Payload
Rocket body
Debris
Shape & HBR
Trap Box + 2 Pan, 2.5 m
Radar Cross Section
2.032 m², Large (>1 m²)

Expand to show TLE details & history
Last TLE update: 14 hours ago

TLE from 14 hours ago
0 ONEWEB-0630
1 56072U 23043AC  25250.24099180  .00000077  00000-0  17061-3 0  9991
2 56072  87.9043 315.6602 0001590  95.0194 265.1118 13.15548867119226
Epoch: 2025-09-07T05:47Z
TLE epoch observation values (Epoch: 2025-09-07T05:47:01.691Z)
Latitude
-0.00001°
Longitude
-117.66014°
Altitude
1,204.768 km
Speed
7.252 km/s
True Right ascension
21h 02m 38s
True Declination
0° 00' 00"
Sunlit
Object was in full shadow at epoch
Visualization orbit readout
Latitude
Unknown
Longitude
Unknown
Altitude
Unknown
Speed
Unknown
Apparent Right ascension
Unknown
Apparent Declination
Unknown
Sunlit
N/A
Visualization observer readout
Local Sidereal Time
11:45:41
Azimuth
Unknown
Elevation
Unknown
Doppler factor
Unknown
Orbital elements
Apogee altitude
1,200.086 km
Perigee altitude
1,197.677 km
Semi-major axis
7,577.019 km
Eccentricity
0.00016
Inclination
87.9043°
RAAN
315.6602°
Arg. of periapsis
95.0194°
True anomaly
265.09365°
Mean anomaly
265.1118°
Eccentric anomaly
265.10272°
Mean motion
3.29076 °/min
Orbital period
109.4 mins
BSTAR
0.00017061
Loading maneuver chart data...
Computing Atmospheric mass density...
Loading historical data...
Loading historical data...
Loading historical data...
Loading historical data...
Loading historical data...
Loading historical data...
Loading historical data...

Documentation

Showing up to 5 results
|